Location: Audinghen
(50.8518°N, 1.6129°E)
Time: 02:56:45
(UTC+00:00)

Cosmos 1634 Rocket - Pass Details

Date: 07 August 2020
Orbit: 960 x 992 km, 82.9° (Epoch: 25 September)

Event Time Altitude Azimuth Distance (km) Brightness Sun altitude
Exits shadow 01:50:21 30° 199° (SSW) 1,673 4.7 -18.6°
Maximum altitude 01:53:39 77° 281° (W) 1,006 4.0 -18.3°
Drops below altitude 10° 01:59:55 10° 8° (N) 2,728 7.4 -17.8°
Sets 02:02:26 0° 10° (N) 3,675 8.3 -17.6°
